Regional Weather Roundup
Issued by NWS Albany, NY

Home | Current Version | Previous Version | Graphics & Text | Print | Product List | Glossary On
Versions: 1 2 3 4 5 6 7 8 9 10 11 12 13 14 15 16 17 18 19 20 21 22 23 24 25 26 27 28 29 30 31 32 33 34 35 36 37 38 39 40 41 42 43 44 45 46 47 48 49 50
000
ASUS41 KALY 030410
RWRALY

NEW YORK STATE HOURLY WEATHER ROUNDUP
NATIONAL WEATHER SERVICE ALBANY NY
1200 AM EDT MON AUG 03 2015

NOTE: "FAIR" INDICATES FEW OR NO CLOUDS BELOW 12,000 FEET WITH NO
SIGNIFICANT WEATHER AND/OR NO OBSTRUCTIONS TO VISIBILITY.

NYZ032-033-038>043-046>054-057>066-NYZ062>081-030500-
EAST


CITY           SKY/WX    TMP DP  RH WIND       PRES   REMARKS
ALBANY         PTCLDY    74  58  57 S7        29.80F
GLENS FALLS    PTCLDY    66  59  78 NW3       29.79F
POUGHKEEPSIE   CLEAR     66  58  75 CALM      29.85R
NEWBURGH       CLEAR     72  59  64 SW6       29.87S
MONTGOMERY     CLEAR     64  58  80 S3        29.87R
WHITE PLAINS   CLEAR     69  65  86 CALM      29.87S
ISLIP          PTCLDY    76  70  82 SW8       29.86S
NEW YORK CITY  PTCLDY    80  62  54 S6        29.85F
CENTRAL PARK   CLEAR     79  56  45 CALM      29.89S
$$

NYZ005>009-017-018-044>046-055-056-030500-
CENTRAL


CITY           SKY/WX    TMP DP  RH WIND       PRES   REMARKS
FULTON         MOCLDY    73  59  61 VRB6      29.69F
SYRACUSE       MOCLDY    77  60  55 S16G24    29.70F
ROME           MOCLDY    70  58  65 E6        29.76F
ELMIRA         MOCLDY    72  61  68 SW6       29.78F
BINGHAMTON     CLEAR     69  59  70 SW8       29.84F
MONTICELLO     CLEAR     63  57  82 CALM      29.91F
$$

NYZ026>034-041>043-030500-
NORTH


CITY           SKY/WX    TMP DP  RH WIND       PRES   REMARKS
WATERTOWN      MOCLDY    74  56  53 S9        29.64F
FORT DRUM      NOT AVBL
MASSENA        MOCLDY    73  55  53 S10       29.65F
SARANAC LAKE   PTCLDY    68  53  58 S10       29.75F
PLATTSBURGH    CLEAR     68  59  73 S6        29.70F
$$

NYZ001>004-010>016-019>021-030500-
WEST


CITY           SKY/WX    TMP DP  RH WIND       PRES   REMARKS
NIAGARA FALLS  CLOUDY    71  60  68 W26G52    29.71R THUNDER
BUFFALO        CLOUDY    79  61  53 SW21G28   29.67S
DUNKIRK        LGT RAIN  79  61  53 S24G36    29.68F
JAMESTOWN      MOCLDY    73  59  60 S13G18    29.78F
WELLSVILLE     CLOUDY    72  59  63 SW13G21   29.84F
ROCHESTER      CLOUDY    73  59  61 SW9       29.68F
PENN YAN       MOCLDY    75  59  57 S13G21    29.74F
$$

             KEY
       WCI = WIND CHILL INDEX
       VSB = VISIBILITY
       HX  = HEAT INDEX
$$



USA.gov is the U.S. government's official web portal to all federal, state and local government web resources and services.